Weather History for Northeast Philadelphia, PA

Change the Weather History Date:

Sunday, July 28, 2013

  Actual Average Record
Temperature  
Mean Temperature 76 °F -  
Max Temperature 82 °F 83 °F 98 °F (1999)
Min Temperature 68 °F 65 °F 59 °F (2001)
Cooling Degree Days 10    
Growing Degree Days 26 (Base 50)    
Moisture  
Dew Point 68 °F    
Average Humidity 87    
Maximum Humidity 100    
Minimum Humidity 69    
Precipitation  
Precipitation 0.58 in - - ()
Sea Level Pressure  
Sea Level Pressure 29.96 in    
Wind  
Wind Speed 5 mph (SSE)    
Max Wind Speed 14 mph    
Max Gust Speed 23 mph    
Visibility 8 miles    
Events Rain , Thunderstorm    
Averages and records for this station are not official NWS values.
T = Trace of Precipitation, MM = Missing Value Source: NWS Daily Summary

Daily Weather History Graph

Daily Weather History Graph

Search for Another Location

Airport:

Trip Planner

Search our weather history database for the weather conditions in past years. The results will help you decide how hot, cold, wet, or windy it might be!

Date:

Astronomy

Jul. 28, 2013 Rise Set
Actual Time 5:54 AM EDT 8:17 PM EDT
Civil Twilight 5:24 AM EDT 8:48 PM EDT
Nautical Twilight 4:46 AM EDT 9:26 PM EDT
Astronomical Twilight 4:03 AM EDT 10:08 PM EDT
Moon 11:37 PM EDT (7/28) 12:34 PM EDT (7/28)
Length of Visible Light 15h 24m
Length of Day
14h 22m
Waning Gibbous, 61% of the Moon is Illuminated
Jul 28
Waning Gibbous
Jul 29
Last Quarter
Aug 6
New
Aug 14
First Quarter
Aug 20
Full

Hourly Weather History & Observations

Time (EDT) Temp. Heat Index Dew Point Humidity Pressure Visibility Wind Dir Wind Speed Gust Speed Precip Events Conditions
12:54 AM 71.1 °F - 66.0 °F 84% 29.97 in 10.0 mi SE 3.5 mph - N/A   Mostly Cloudy
1:54 AM 70.0 °F - 66.0 °F 87% 29.98 in 10.0 mi SSE 3.5 mph - N/A   Mostly Cloudy
2:54 AM 70.0 °F - 66.9 °F 90% 29.96 in 10.0 mi Calm Calm - N/A   Overcast
3:54 AM 70.0 °F - 68.0 °F 93% 29.96 in 10.0 mi SSE 3.5 mph - N/A   Overcast
4:54 AM 70.0 °F - 66.9 °F 90% 29.96 in 10.0 mi SSE 3.5 mph - N/A   Overcast
5:54 AM 70.0 °F - 66.9 °F 90% 29.97 in 10.0 mi South 3.5 mph - N/A   Mostly Cloudy
6:54 AM 70.0 °F - 66.9 °F 90% 29.98 in 10.0 mi SE 3.5 mph - N/A   Partly Cloudy
7:54 AM 71.1 °F - 66.9 °F 87% 29.98 in 10.0 mi SE 3.5 mph - N/A   Mostly Cloudy
8:54 AM 73.0 °F - 66.0 °F 79% 29.97 in 10.0 mi Calm Calm - N/A   Partly Cloudy
9:54 AM 73.9 °F - 66.9 °F 79% 29.96 in 10.0 mi Calm Calm - N/A   Scattered Clouds
10:54 AM 77.0 °F - 69.1 °F 76% 29.95 in 10.0 mi SSE 5.8 mph - N/A   Scattered Clouds
11:54 AM 77.0 °F - 70.0 °F 79% 29.96 in 10.0 mi SE 8.1 mph - 0.00 in Rain Light Rain
12:29 PM 78.8 °F - 71.6 °F 78% 29.97 in 10.0 mi SSE 6.9 mph - 0.00 in   Scattered Clouds
12:39 PM 77.0 °F - 71.6 °F 83% 29.97 in 10.0 mi SSE 9.2 mph - 0.00 in   Mostly Cloudy
12:54 PM 78.1 °F - 71.1 °F 79% 29.96 in 10.0 mi South 9.2 mph 16.1 mph 0.00 in   Overcast
1:54 PM 80.1 °F 83.8 °F 72.0 °F 76% 29.94 in 10.0 mi SSE 6.9 mph 16.1 mph N/A   Mostly Cloudy
2:15 PM 80.6 °F 84.6 °F 71.6 °F 74% 29.94 in 10.0 mi South 8.1 mph 16.1 mph N/A   Scattered Clouds
2:54 PM 82.0 °F 86.3 °F 71.1 °F 69% 29.91 in 10.0 mi SSE 11.5 mph 17.3 mph 0.00 in   Partly Cloudy
3:54 PM 80.1 °F 83.2 °F 70.0 °F 71% 29.90 in 10.0 mi SSE 9.2 mph 16.1 mph 0.00 in Rain Light Rain
4:10 PM 78.8 °F - 71.6 °F 78% 29.91 in 3.0 mi South 4.6 mph - 0.01 in Rain , Thunderstorm Thunderstorms and Rain
4:25 PM 75.2 °F - 73.4 °F 94% 29.91 in 2.5 mi WSW 11.5 mph - 0.05 in Rain , Thunderstorm Heavy Rain
4:29 PM 75.2 °F - 73.4 °F 94% 29.91 in 0.8 mi WSW 13.8 mph 23.0 mph 0.12 in Rain , Thunderstorm Heavy Rain
4:36 PM 71.6 °F - 68.0 °F 88% 29.92 in 1.0 mi SW 10.4 mph 23.0 mph 0.23 in Rain , Thunderstorm Rain
4:38 PM 69.8 °F - 66.2 °F 88% 29.92 in 2.0 mi SW 10.4 mph 19.6 mph 0.24 in Rain , Thunderstorm Light Rain
4:45 PM 69.8 °F - 66.2 °F 88% 29.93 in 8.0 mi SW 9.2 mph 19.6 mph 0.24 in Rain , Thunderstorm Light Rain
4:54 PM 70.0 °F - 68.0 °F 93% 29.93 in 9.0 mi WSW 10.4 mph - 0.24 in Rain , Thunderstorm Light Rain
5:14 PM 69.8 °F - 66.2 °F 88% 29.94 in 10.0 mi SSW 12.7 mph 18.4 mph 0.00 in   Mostly Cloudy
5:30 PM 69.8 °F - 66.2 °F 88% 29.93 in 10.0 mi Calm Calm - 0.00 in Rain , Thunderstorm Light Rain
5:54 PM 69.1 °F - 66.9 °F 93% 29.95 in 10.0 mi South 4.6 mph - 0.00 in Rain , Thunderstorm Light Thunderstorms and Rain
6:07 PM 69.8 °F - 68.0 °F 94% 29.95 in 10.0 mi SSE 3.5 mph - 0.00 in Rain Light Rain
6:18 PM 69.8 °F - 69.8 °F 100% 29.94 in 6.0 mi SSE 4.6 mph - 0.02 in Rain , Thunderstorm Light Rain
6:28 PM 69.8 °F - 69.8 °F 100% 29.95 in 10.0 mi SSE 4.6 mph - 0.02 in Rain , Thunderstorm Light Rain
6:54 PM 70.0 °F - 69.1 °F 97% 29.96 in 10.0 mi SE 4.6 mph - 0.02 in Rain Light Rain
7:46 PM 69.8 °F - 66.2 °F 88% 29.97 in 0.8 mi SSE 3.5 mph - 0.03 in Rain Heavy Rain
7:54 PM 69.1 °F - 66.9 °F 93% 29.97 in 0.8 mi Variable 4.6 mph - 0.26 in Rain Heavy Rain
7:57 PM 69.8 °F - 66.2 °F 88% 29.97 in 2.5 mi NW 8.1 mph - 0.01 in Rain Light Rain
8:04 PM 69.8 °F - 66.2 °F 88% 29.97 in 10.0 mi Calm Calm - 0.01 in Rain Light Rain
8:29 PM 69.8 °F - 68.0 °F 94% 29.98 in 7.0 mi Calm Calm - 0.03 in Rain , Thunderstorm Light Rain
8:54 PM 70.0 °F - 68.0 °F 93% 29.98 in 10.0 mi Calm Calm - 0.04 in Rain Light Rain
9:11 PM 69.8 °F - 68.0 °F 94% 29.99 in 10.0 mi SE 5.8 mph - 0.00 in Rain , Thunderstorm Light Thunderstorms and Rain
9:54 PM 69.1 °F - 68.0 °F 96% 29.99 in 9.0 mi SE 11.5 mph - 0.02 in Rain , Thunderstorm Light Rain
10:14 PM 69.8 °F - 68.0 °F 94% 29.99 in 10.0 mi SE 9.2 mph - 0.00 in Rain Light Rain
10:54 PM 69.1 °F - 66.0 °F 90% 29.99 in 10.0 mi SE 3.5 mph - 0.00 in   Scattered Clouds
11:54 PM 68.0 °F - 66.0 °F 93% 29.98 in 10.0 mi Calm Calm - 0.00 in   Overcast